When you browse on this site, cookies collect data to enhance your experience and personalize the content and advertising you see.
Visit our Privacy Policy to learn more. By continuing to use the site, you agree to this use of cookies and data.
  • In Slovakia
  • List of Countries
  • For 7 days
  • Water Temperature
  • Weather Map
  • Weather Widgets
  • user-avatar
    Login

    Hourly Weather Córdoba

    Today, 22 August, Thursday

    Time Temperature Precipitation Wind Pressure Humidity
    00:00 +9°C° 0 mm 1 mps 729 mmHg 72%
    01:00 +9°C° 0 mm 1 mps 730 mmHg 74%
    02:00 +8°C° 0 mm 2 mps 730 mmHg 76%
    03:00 +9°C° 0 mm 1 mps 730 mmHg 76%
    04:00 +9°C° 0 mm 1 mps 730 mmHg 76%
    05:00 +9°C° 0 mm 1 mps 730 mmHg 76%
    06:00 +10°C° 0 mm 1 mps 731 mmHg 69%
    07:00 +11°C° 0 mm 1 mps 731 mmHg 63%
    08:00 +12°C° 0 mm 1 mps 732 mmHg 57%
    09:00 +15°C° 0 mm 1 mps 732 mmHg 49%
    10:00 +19°C° 0 mm 1 mps 732 mmHg 42%
    11:00 +20°C° 0 mm 2 mps 733 mmHg 34%
    12:00 +21°C° 0 mm 2 mps 732 mmHg 32%
    13:00 +23°C° 0 mm 2 mps 732 mmHg 31%
    14:00 +23°C° 0 mm 2 mps 732 mmHg 29%
    15:00 +23°C° 0 mm 2 mps 731 mmHg 30%
    16:00 +23°C° 0 mm 2 mps 731 mmHg 30%
    17:00 +21°C° 0 mm 2 mps 731 mmHg 31%
    18:00 +19°C° 0 mm 2 mps 731 mmHg 38%
    19:00 +17°C° 0 mm 2 mps 731 mmHg 44%
    20:00 +15°C° 0 mm 2 mps 731 mmHg 51%
    21:00 +14°C° 0 mm 2 mps 731 mmHg 55%
    22:00 +13°C° 0 mm 2 mps 731 mmHg 58%
    23:00 +13°C° 0 mm 2 mps 731 mmHg 61%

    Tomorrow, 23 August, Friday

    Time Temperature Precipitation Wind Pressure Humidity
    00:00 +12°C° 0 mm 2 mps 731 mmHg 63%
    01:00 +12°C° 0 mm 2 mps 731 mmHg 65%
    02:00 +12°C° 0 mm 2 mps 731 mmHg 67%
    03:00 +10°C° 0 mm 2 mps 730 mmHg 69%
    04:00 +10°C° 0 mm 2 mps 730 mmHg 71%
    05:00 +9°C° 0 mm 2 mps 729 mmHg 74%
    06:00 +10°C° 0 mm 2 mps 729 mmHg 70%
    07:00 +11°C° 0 mm 3 mps 729 mmHg 66%
    08:00 +12°C° 0 mm 3 mps 730 mmHg 63%
    09:00 +14°C° 0 mm 4 mps 730 mmHg 56%
    10:00 +16°C° 0 mm 5 mps 730 mmHg 48%
    11:00 +19°C° 0 mm 5 mps 730 mmHg 41%
    12:00 +20°C° 0 mm 6 mps 729 mmHg 39%
    13:00 +20°C° 0 mm 6 mps 728 mmHg 38%
    14:00 +21°C° 0 mm 6 mps 727 mmHg 36%
    15:00 +21°C° 0 mm 6 mps 727 mmHg 38%
    16:00 +20°C° 0 mm 6 mps 726 mmHg 39%
    17:00 +19°C° 0 mm 5 mps 725 mmHg 41%
    18:00 +17°C° 0 mm 5 mps 725 mmHg 47%
    19:00 +15°C° 0 mm 4 mps 725 mmHg 54%
    20:00 +13°C° 0 mm 3 mps 725 mmHg 60%
    21:00 +12°C° 0 mm 3 mps 726 mmHg 62%
    22:00 +13°C° 0 mm 2 mps 726 mmHg 63%
    23:00 +13°C° 0 mm 2 mps 726 mmHg 65%

    Day after tomorrow, 24 August, Saturday

    Time Temperature Precipitation Wind Pressure Humidity
    00:00 +12°C° 0 mm 2 mps 726 mmHg 66%
    01:00 +12°C° 0 mm 2 mps 725 mmHg 67%
    02:00 +10°C° 0 mm 2 mps 725 mmHg 68%
    03:00 +10°C° 0 mm 2 mps 725 mmHg 70%
    04:00 +10°C° 0 mm 2 mps 724 mmHg 71%
    05:00 +9°C° 0 mm 2 mps 724 mmHg 73%
    06:00 +10°C° 0 mm 2 mps 724 mmHg 70%
    07:00 +12°C° 0 mm 2 mps 725 mmHg 67%
    08:00 +12°C° 0 mm 3 mps 725 mmHg 64%
    09:00 +14°C° 0 mm 3 mps 725 mmHg 57%
    10:00 +17°C° 0 mm 4 mps 725 mmHg 50%
    11:00 +19°C° 0 mm 5 mps 725 mmHg 43%
    12:00 +20°C° 0 mm 5 mps 724 mmHg 41%
    13:00 +21°C° 0 mm 5 mps 724 mmHg 39%
    14:00 +22°C° 0 mm 6 mps 723 mmHg 37%
    15:00 +22°C° 0 mm 5 mps 723 mmHg 38%
    16:00 +21°C° 0 mm 5 mps 722 mmHg 40%
    17:00 +21°C° 0 mm 4 mps 722 mmHg 41%
    18:00 +19°C° 0 mm 3 mps 723 mmHg 47%
    19:00 +17°C° 0 mm 3 mps 723 mmHg 52%
    20:00 +16°C° 0 mm 2 mps 723 mmHg 58%
    21:00 +15°C° 0 mm 2 mps 723 mmHg 60%
    22:00 +15°C° 0 mm 2 mps 724 mmHg 62%
    23:00 +15°C° 0 mm 1 mps 724 mmHg 63%

    25 August, Sunday

    Time Temperature Precipitation Wind Pressure Humidity
    00:00 +14°C° 0 mm 1 mps 724 mmHg 65%
    01:00 +14°C° 0 mm 1 mps 723 mmHg 66%
    02:00 +14°C° 0 mm 1 mps 723 mmHg 68%
    03:00 +14°C° 0 mm 1 mps 723 mmHg 69%
    04:00 +13°C° 0 mm 0 mps 723 mmHg 70%
    05:00 +13°C° 0 mm 0 mps 723 mmHg 71%
    06:00 +14°C° 0 mm 1 mps 724 mmHg 68%
    07:00 +15°C° 0 mm 1 mps 724 mmHg 66%
    08:00 +16°C° 0 mm 1 mps 725 mmHg 63%
    09:00 +19°C° 0 mm 1 mps 725 mmHg 56%
    10:00 +20°C° 0 mm 2 mps 725 mmHg 50%
    11:00 +24°C° 0 mm 2 mps 726 mmHg 44%
    12:00 +25°C° 0 mm 2 mps 726 mmHg 43%
    13:00 +25°C° 0 mm 3 mps 725 mmHg 41%
    14:00 +26°C° 0 mm 3 mps 725 mmHg 40%
    15:00 +26°C° 0 mm 3 mps 725 mmHg 44%
    16:00 +25°C° 0 mm 4 mps 725 mmHg 48%
    17:00 +23°C° 0 mm 4 mps 725 mmHg 52%
    18:00 +21°C° 0 mm 3 mps 726 mmHg 62%
    19:00 +19°C° 0 mm 2 mps 726 mmHg 71%
    20:00 +18°C° 0 mm 1 mps 727 mmHg 80%
    21:00 +18°C° 0 mm 1 mps 727 mmHg 82%
    22:00 +15°C° 0 mm 0 mps 728 mmHg 84%
    23:00 +15°C° 0 mm 0 mps 728 mmHg 86%

    26 August, Monday

    Time Temperature Precipitation Wind Pressure Humidity
    00:00 +15°C° 0 mm 0 mps 728 mmHg 86%
    01:00 +14°C° 0 mm 0 mps 728 mmHg 86%
    02:00 +14°C° 0 mm 0 mps 728 mmHg 86%
    03:00 +14°C° 0 mm 0 mps 728 mmHg 87%
    04:00 +13°C° 0 mm 0 mps 728 mmHg 88%
    05:00 +13°C° 0 mm 0 mps 728 mmHg 89%
    06:00 +14°C° 0 mm 0 mps 729 mmHg 86%
    07:00 +16°C° 0 mm 1 mps 729 mmHg 83%
    08:00 +16°C° 0 mm 1 mps 729 mmHg 80%
    09:00 +20°C° 0 mm 1 mps 730 mmHg 72%
    10:00 +21°C° 0 mm 2 mps 730 mmHg 64%
    11:00 +24°C° 0 mm 3 mps 730 mmHg 56%
    12:00 +25°C° 0 mm 3 mps 730 mmHg 54%
    13:00 +26°C° 0 mm 4 mps 729 mmHg 51%
    14:00 +27°C° 0 mm 5 mps 729 mmHg 49%
    15:00 +26°C° 0 mm 5 mps 729 mmHg 54%
    16:00 +25°C° 0 mm 5 mps 728 mmHg 58%
    17:00 +23°C° 0 mm 5 mps 728 mmHg 63%
    18:00 +21°C° 0 mm 4 mps 728 mmHg 72%
    19:00 +19°C° 0 mm 4 mps 729 mmHg 81%
    20:00 +17°C° 0 mm 3 mps 729 mmHg 90%
    21:00 +17°C° 0 mm 3 mps 729 mmHg 91%
    22:00 +17°C° 0 mm 2 mps 730 mmHg 91%
    23:00 +16°C° 0 mm 2 mps 730 mmHg 92%

    27 August, Tuesday

    Time Temperature Precipitation Wind Pressure Humidity
    00:00 +17°C° 0 mm 2 mps 730 mmHg 90%
    01:00 +17°C° 0 mm 2 mps 730 mmHg 89%
    02:00 +17°C° 0 mm 2 mps 730 mmHg 88%
    03:00 +17°C° 0 mm 3 mps 729 mmHg 89%
    04:00 +17°C° 0 mm 3 mps 729 mmHg 89%
    05:00 +17°C° 0 mm 3 mps 729 mmHg 89%
    06:00 +17°C° 0 mm 3 mps 729 mmHg 88%
    07:00 +17°C° 0 mm 3 mps 729 mmHg 87%
    08:00 +18°C° 0 mm 3 mps 730 mmHg 85%
    09:00 +19°C° 0 mm 4 mps 730 mmHg 78%
    10:00 +21°C° 0 mm 4 mps 730 mmHg 70%
    11:00 +22°C° 0 mm 4 mps 730 mmHg 62%
    12:00 +23°C° 0 mm 4 mps 729 mmHg 59%
    13:00 +25°C° 0 mm 5 mps 729 mmHg 56%
    14:00 +26°C° 0 mm 5 mps 728 mmHg 53%
    15:00 +25°C° 0 mm 5 mps 728 mmHg 56%
    16:00 +23°C° 0 mm 5 mps 727 mmHg 58%
    17:00 +23°C° 0 mm 5 mps 727 mmHg 61%
    18:00 +21°C° 0 mm 5 mps 727 mmHg 68%
    19:00 +20°C° 0 mm 5 mps 727 mmHg 75%
    20:00 +18°C° 0 mm 4 mps 727 mmHg 82%
    21:00 +18°C° 0 mm 4 mps 727 mmHg 84%
    22:00 +18°C° 0 mm 4 mps 727 mmHg 85%
    23:00 +17°C° 0 mm 4 mps 727 mmHg 87%
    Show more